Погода в Тоёхаси

Япония     34°45′37″N   137°23′31″E
темп.,
°C
ветер,
м/с
пор.,
м/с
влажн.,
%
обл.,
%
осадки,
мм/ч
давл.,
гПа
погр.,
м
28 октября, чт
чт2800:00+16з236593 0.0 101674
03:00+14сз377118 0.0 1015184
06:00+14сз411680 0.0 1015340
09:00+18ссз36500 0.0 1016567
12:00+21сз23360 0.0 10151206
15:00+22сз57380 0.0 10141408
18:00+19сз510460 0.0 1015665
21:00+16с24590 0.0 1017148
29 октября, пт
пт2900:00+15ссз236386 0.0 1018116
03:00+15сз2362100 0.0 1018172
06:00+14с22647 0.0 1019147
09:00+16ссз22470 0.0 1020453
12:00+20юз22360 0.0 10191181
15:00+20ю22380 0.0 10191449
18:00+18ююв12450 0.0 1021131
21:00+16с11540 0.0 1022120
30 октября, сб
сб3000:00+14ссв22670 0.0 1023104
03:00+13ссв23650 0.0 102498
06:00+13ссв22640 0.0 102586
09:00+17св225423 0.0 1026322
12:00+20ююв23495 0.0 10251486
15:00+20ююв32555 0.0 10241309
18:00+18юв23645 0.0 1025395
21:00+17св2370100 0.1 1026153
31 октября, вс
вс3100:00+16св247267 0.1 1025144
03:00+15св2472100 0.1 1025142
06:00+15ссв2469100 0.1 1025132
09:00+18всв3557100 0.1 1024364
12:00+20вюв3355100 0.0 10221011
15:00+18вюв3478100 1.6 1022461
18:00+17св2483100 1.5 1023394
21:00+16ссв2482100 2.8 1023200
1 ноября, пн
пн100:00+15ссв2484100 1.6 1022198
03:00+15ссв238296 1.9 1021119
06:00+16св238096 0.0 1021124
09:00+18всв257175 0.0 1022565
12:00+19в5671100 0.2 1020939
15:00+17всв3686100 2.0 1019455
18:00+16в4793100 3.9 1019370
21:00+16в3993100 9.1 1019465